GEFSNGP_con_probscp_210.txt.gz
Probability
0 0 0 0 0 0 0 1 2 6 12 20 27 31 35 37 35 35 33 31 33 37 36 32 28 28 29 28 26 25 22 20 22 23 22 23 22 18 13 10 12 14 14 13
0 0 0 0 0 0 0 1 5 9 14 22 29 32 34 35 34 33 31 29 31 33 33 31 30 31 31 28 26 25 24 23 24 24 25 27 26 21 14 11 13 15 15 15
0 0 0 0 1 2 2 4 8 13 18 26 32 32 32 33 32 30 29 28 28 28 28 28 28 30 31 28 26 27 27 27 28 29 29 31 32 28 21 17 15 15 15 15
0 0 0 1 2 5 6 8 12 16 22 31 35 33 33 32 30 28 26 25 24 24 25 25 24 26 30 30 29 30 31 32 33 34 33 36 38 36 30 25 21 17 15 14
0 0 0 2 5 8 10 14 17 19 25 32 35 35 32 30 29 27 25 23 22 22 22 22 23 26 30 32 34 35 35 36 36 36 36 38 41 39 34 30 26 22 18 16
0 0 1 4 9 12 13 17 20 23 27 31 33 32 29 28 29 29 28 26 25 23 23 24 26 29 31 33 36 37 37 37 36 35 34 37 38 37 34 31 28 25 22 21
0 0 2 7 12 14 14 17 21 25 28 29 29 28 29 30 32 32 32 32 31 29 27 27 29 31 32 33 34 35 35 34 33 32 31 32 34 33 33 30 27 25 23 22
1 1 3 6 9 11 12 14 20 24 26 27 26 27 30 32 32 32 32 33 32 31 29 28 29 30 30 30 31 30 30 28 28 29 29 30 29 29 29 28 27 26 23 21
4 4 4 5 7 9 10 12 16 21 23 24 26 27 28 28 28 29 30 30 29 28 27 26 27 28 28 27 26 25 24 23 23 25 27 27 26 26 26 26 26 25 24 22
7 6 6 6 8 10 11 11 13 18 21 23 25 25 24 22 22 23 24 25 26 24 24 24 25 26 25 23 21 21 20 19 20 22 25 25 23 21 22 23 23 22 22 21
7 7 7 7 8 10 10 9 10 13 18 21 22 22 20 18 17 17 18 20 21 21 21 21 22 21 21 19 18 19 19 19 19 21 23 22 19 17 16 17 17 17 16 16
5 5 5 6 7 8 7 5 5 8 11 15 18 19 18 16 14 13 14 16 17 19 19 19 18 16 16 16 16 17 17 18 19 20 20 19 16 14 12 11 10 9 9 8
4 4 4 5 7 7 4 2 3 4 5 8 12 14 15 14 12 12 12 13 14 15 15 14 13 12 12 13 14 15 16 17 18 18 17 16 15 14 12 9 7 5 4 3
4 3 3 4 5 5 2 1 3 4 4 6 8 10 12 13 11 10 11 11 11 11 10 9 9 9 10 12 13 14 14 15 16 16 15 14 13 14 14 12 9 6 4 2
3 3 2 3 3 3 3 2 3 4 5 5 6 8 10 10 9 9 10 10 9 8 7 7 9 10 10 11 12 13 13 13 13 14 13 12 11 12 13 12 11 9 6 4
3 3 3 3 3 3 3 4 4 4 5 5 4 4 5 6 7 7 8 7 7 6 6 8 10 11 10 10 12 13 13 12 11 12 11 9 9 10 10 10 10 10 8 6
2 3 3 3 3 3 3 4 4 5 5 4 2 1 2 3 4 5 5 4 4 5 5 7 9 9 9 9 11 13 13 11 10 9 9 9 9 8 7 7 8 8 8 6
1 1 2 3 3 3 3 3 3 3 3 3 2 1 1 2 3 3 3 3 3 4 5 6 7 7 7 8 10 13 13 11 8 8 9 9 7 6 5 5 6 7 6 5
0 0 1 2 2 2 2 1 1 1 1 1 2 2 1 1 2 3 3 3 3 3 4 5 5 6 7 7 9 12 12 10 8 8 9 8 5 4 3 4 5 5 5 4
0 0 0 1 1 1 1 0 0 0 0 0 2 3 3 2 2 2 3 3 3 4 5 5 4 5 6 6 8 10 11 8 7 8 8 7 4 3 3 3 4 4 4 3
0 0 0 0 0 0 0 0 0 0 0 1 2 3 3 3 2 1 2 2 2 4 5 4 4 4 5 5 6 8 9 7 6 7 6 5 3 2 1 1 2 2 2 1
0 0 0 0 0 0 0 0 0 0 0 1 2 2 2 2 1 0 1 1 1 3 3 3 2 3 3 3 4 5 6 6 5 5 4 3 1 1 0 0 1 1 0 0
0 0 0 0 0 0 0 0 0 0 0 0 1 1 0 0 0 0 0 1 1 1 2 1 1 1 1 1 2 3 4 4 4 4 3 1 0 0 0 0 0 0 0 0
0 0 0 0 1 0 0 0 0 0 0 0 0 0 0 0 0 0 1 1 0 0 0 0 0 0 0 0 1 2 3 3 3 3 2 1 0 0 0 0 0 0 0 0
0 0 0 0 0 0 0 0 0 0 0 0 0 0 0 0 0 0 0 0 0 0 0 0 0 0 0 0 0 1 2 3 3 2 1 0 0 0 0 0 0 0 0 0
0 0 0 0 0 0 0 0 0 0 0 0 0 0 0 0 0 0 0 0 0 0 0 0 0 0 0 0 0 0 1 2 2 1 0 0 0 0 0 0 0 0 0 0
0 0 0 0 0 0 0 0 0 0 0 0 0 0 0 0 0 0 0 0 0 0 0 0 0 0 0 0 0 0 0 1 1 0 0 0 0 0 0 0 0 0 0 0

GEFSNGP_con_probscp_216.txt.gz
Probability
0 0 1 1 1 1 0 0 0 0 2 4 7 10 15 21 23 21 18 17 15 15 15 14 13 13 13 13 13 16 18 19 17 14 12 12 14 18 18 15 11 9 8 9
0 0 1 2 2 1 0 0 0 1 3 6 9 13 18 22 22 19 16 15 15 15 15 15 15 15 15 15 15 16 18 19 17 14 11 11 13 16 16 14 12 11 11 12
0 0 1 2 2 2 2 1 2 3 5 8 11 15 19 21 19 17 14 14 15 15 15 16 17 19 18 18 18 18 18 20 19 15 12 11 11 11 11 12 12 13 13 14
0 0 0 1 2 4 5 5 4 5 7 9 12 14 17 18 17 16 16 16 16 16 16 17 18 20 20 20 21 22 21 22 19 15 13 12 12 11 12 13 13 12 11 11
0 0 1 2 4 6 8 7 7 8 9 12 15 16 16 15 15 17 19 18 16 17 19 19 19 19 19 18 19 22 23 22 19 16 14 15 14 15 16 16 15 13 10 8
0 0 1 3 4 6 6 6 7 8 11 15 18 16 12 12 14 17 18 17 17 18 20 20 20 19 18 15 14 17 21 21 20 19 19 18 17 18 18 17 17 15 11 9
0 0 1 3 5 4 4 4 5 8 12 17 18 14 9 9 13 14 13 14 18 19 18 17 18 19 17 14 12 13 16 19 20 22 22 21 19 19 18 16 16 15 13 11
1 1 1 3 5 4 2 3 5 8 12 16 16 13 9 8 11 12 11 12 15 18 17 14 13 15 16 15 13 12 14 17 19 21 22 22 21 19 17 16 15 15 14 14
3 3 3 4 5 4 3 4 6 9 11 13 13 12 9 9 10 12 12 11 12 14 15 14 12 13 15 15 14 14 16 17 19 20 20 20 21 19 18 17 16 15 16 17
5 4 4 5 5 4 4 6 7 8 9 10 10 9 8 8 9 10 11 10 11 12 13 13 13 13 14 15 15 17 18 18 19 19 18 18 19 19 17 16 15 15 17 19
3 3 3 3 3 3 4 5 6 6 7 6 7 7 7 8 7 7 7 8 10 11 11 10 10 11 13 13 14 16 17 17 16 15 15 16 17 17 15 14 13 14 16 17
1 1 1 1 1 1 2 2 3 3 4 4 5 6 8 7 6 5 5 7 9 10 10 8 7 8 9 10 12 14 15 14 12 11 13 14 15 15 13 11 9 9 10 11
0 1 1 1 0 0 0 0 0 1 1 2 4 6 8 7 6 5 5 7 8 10 9 8 7 6 6 7 9 12 12 11 10 10 11 13 14 15 14 10 6 4 3 3
1 1 2 1 1 1 0 0 0 0 0 1 3 6 7 7 6 6 6 7 8 9 9 9 7 6 4 5 7 9 10 9 10 11 11 12 14 15 14 11 8 4 1 0
1 2 2 2 1 1 0 0 0 0 0 1 3 5 6 6 6 6 6 7 8 9 10 9 8 5 3 3 5 6 8 9 9 10 10 11 13 14 13 11 8 6 2 1
1 2 3 3 2 2 1 0 0 0 0 0 1 3 4 5 6 7 8 8 7 8 8 7 5 2 1 1 3 5 7 7 7 7 7 8 11 12 11 8 7 5 4 2
0 1 2 2 2 2 1 0 0 0 0 0 1 2 3 5 6 7 7 6 5 4 4 3 2 0 0 0 1 4 6 6 5 5 5 6 9 10 8 6 4 4 3 2
0 0 1 1 1 1 1 0 0 0 0 0 0 1 3 4 4 4 4 3 2 1 1 1 0 0 0 0 1 3 5 6 5 5 6 7 8 8 6 3 2 3 3 2
0 0 0 0 1 2 2 1 0 0 0 0 0 1 2 3 3 2 1 0 0 0 0 1 0 0 0 0 1 3 4 6 6 6 7 7 7 6 4 2 1 1 2 3
0 0 0 0 1 2 2 1 0 0 0 0 0 0 1 3 3 3 2 1 0 0 0 0 0 0 0 0 1 2 4 6 6 7 7 6 6 6 4 2 1 1 2 3
0 0 0 0 0 1 1 1 0 0 0 0 0 0 1 2 3 3 2 1 0 0 0 0 0 0 0 0 1 2 4 5 6 6 6 5 6 6 5 4 2 2 3 3
0 0 0 0 0 0 0 0 0 0 0 0 0 0 0 1 2 2 2 1 0 0 0 0 0 0 0 0 1 3 3 4 6 6 5 4 5 6 6 6 5 4 3 3
0 0 0 0 0 0 0 0 0 0 0 0 0 0 0 0 1 1 1 0 0 0 0 0 0 0 0 1 2 3 3 4 5 5 4 4 4 6 6 6 6 5 4 3
0 0 0 0 0 0 0 0 0 0 0 0 0 0 0 0 0 0 0 0 0 0 0 0 0 0 0 1 2 2 2 3 4 4 3 3 4 5 6 6 6 5 4 3
0 0 0 0 0 0 0 0 0 0 0 0 0 0 0 0 0 0 0 0 0 0 0 0 0 0 0 0 1 1 1 1 1 1 2 3 3 3 4 4 4 3 2 1
0 0 0 0 0 0 0 0 0 0 0 0 0 0 0 0 0 0 0 0 0 0 0 0 0 0 0 0 0 0 0 0 0 0 1 2 2 2 2 2 2 1 1 0
0 0 0 0 0 0 0 0 0 0 0 0 0 0 0 0 0 0 0 0 0 0 0 0 0 0 0 0 0 0 0 0 0 0 0 1 1 1 1 1 1 0 0 0

GEFSNGP_con_probscp_222.txt.gz
Probability
0 0 0 0 0 0 0 0 0 1 5 15 22 27 31 34 37 37 37 38 38 38 41 42 42 42 40 38 36 35 33 30 28 29 26 23 24 25 24 23 20 20 21 20
0 0 0 0 0 0 0 0 0 2 8 18 26 31 34 37 38 39 39 38 37 38 41 43 41 40 40 40 39 39 37 33 31 30 28 27 26 26 24 22 20 21 23 24
0 0 0 0 0 1 1 1 2 6 13 22 28 31 34 37 39 40 41 38 34 35 39 41 39 40 41 41 42 43 40 38 36 34 32 30 30 28 24 21 20 22 24 26
0 0 0 0 1 2 2 3 7 10 14 19 24 27 30 34 37 40 41 38 33 31 34 37 37 39 41 42 44 45 43 42 40 37 34 32 32 30 26 22 21 22 25 27
0 0 0 0 2 2 3 5 9 11 12 15 19 23 28 32 34 38 41 40 34 31 32 35 35 37 39 40 43 44 44 42 41 40 37 34 32 32 29 25 24 25 27 28
0 0 1 3 4 3 3 6 10 13 14 17 20 24 28 30 32 36 40 40 35 32 34 36 35 34 34 35 37 38 39 38 39 41 39 36 34 33 32 31 30 29 28 27
0 0 2 6 6 5 6 11 15 18 21 22 25 28 29 29 30 35 38 37 35 33 34 36 35 32 31 31 31 31 31 32 35 37 36 34 34 34 33 33 32 30 28 26
3 4 7 10 11 12 15 18 21 23 24 24 26 28 28 26 26 30 32 31 30 32 33 33 33 33 32 31 30 28 26 26 28 29 28 28 30 31 31 30 28 27 26 25
9 11 13 15 18 19 20 21 22 22 21 20 21 24 24 24 24 23 24 23 25 29 30 31 32 32 31 29 27 27 26 23 21 21 21 23 26 27 27 26 24 24 24 23
15 16 17 17 18 18 18 19 19 18 17 15 16 19 21 22 22 20 18 18 21 24 27 28 29 27 25 24 23 26 27 24 21 19 18 20 22 22 22 23 23 23 22 20
15 16 17 17 16 16 17 16 15 14 14 13 13 14 16 17 18 17 15 15 18 20 22 24 23 21 20 21 21 24 27 26 23 19 17 17 17 17 17 19 20 20 18 16
13 15 17 16 15 15 15 13 10 10 10 10 10 11 10 10 11 12 12 13 15 17 19 19 18 17 19 20 21 22 23 23 23 20 17 15 14 13 13 13 13 13 11 9
11 13 15 15 14 13 11 9 7 7 8 7 8 8 6 6 6 7 9 10 12 14 16 15 14 15 16 17 18 20 19 20 22 21 17 14 12 12 12 10 9 7 6 4
9 11 14 14 12 10 8 5 4 4 5 5 5 4 3 4 4 5 6 8 9 10 12 12 12 13 14 14 15 17 18 18 21 21 18 15 13 12 12 11 11 9 7 4
8 10 12 13 12 8 5 3 1 1 1 2 1 1 1 2 2 3 5 5 6 7 8 9 10 10 12 12 13 15 16 16 17 19 18 16 13 12 12 14 14 13 10 8
7 8 10 11 10 6 3 1 1 1 1 0 0 0 0 1 2 2 3 4 4 4 6 7 8 9 10 11 10 11 12 11 12 14 15 14 12 10 12 14 14 14 12 11
5 5 6 6 6 4 2 1 1 2 1 0 0 0 0 1 2 3 2 2 2 3 6 6 6 7 8 8 8 8 7 6 7 9 10 10 10 10 10 11 12 12 12 11
5 4 3 3 3 3 2 1 1 1 1 0 0 0 1 2 3 4 3 2 1 3 4 5 4 4 5 6 7 6 4 4 4 5 6 7 8 9 10 10 9 9 10 10
5 5 3 2 1 1 1 0 0 0 0 0 0 0 1 2 2 3 4 3 2 2 3 4 3 3 3 3 4 5 4 3 3 3 4 4 6 8 9 9 7 7 8 9
3 3 2 1 1 1 1 0 0 0 0 1 1 1 0 1 1 1 2 2 3 3 4 4 3 3 2 1 1 3 3 2 2 3 3 3 5 7 8 7 7 6 7 9
1 1 1 0 0 0 0 0 0 0 1 2 2 1 0 0 0 0 0 1 2 3 4 4 3 2 1 0 0 1 2 3 2 2 3 3 4 5 6 6 6 7 8 9
0 0 0 0 0 0 0 0 0 1 2 3 3 1 0 0 0 0 0 0 1 1 2 3 3 2 1 0 0 1 2 3 2 2 2 3 4 4 5 6 7 7 9 9
0 0 0 0 0 0 0 0 0 1 2 2 2 1 0 0 0 0 0 0 0 0 1 2 2 1 0 0 0 1 2 3 3 3 3 4 5 5 5 5 6 8 9 9
0 0 0 0 0 0 0 0 0 1 1 1 1 0 0 0 0 0 0 0 0 0 0 1 1 0 0 0 0 0 1 3 4 4 5 6 5 4 4 4 5 6 7 7
0 0 0 0 0 0 0 0 0 0 0 0 0 0 0 0 0 0 0 0 0 0 0 0 0 0 0 0 0 0 2 4 5 5 5 5 3 2 1 2 3 5 5 5
0 0 0 0 0 0 0 0 0 0 0 0 0 0 0 0 0 0 0 0 0 0 0 0 0 0 1 0 0 1 2 4 4 4 4 3 1 0 0 1 3 4 4 4
0 0 0 0 0 0 0 0 0 0 0 0 0 0 0 0 0 0 0 0 0 0 0 0 0 0 1 0 1 2 3 3 3 3 3 1 0 0 0 1 2 3 3 3

GEFSNGP_con_probscp_228.txt.gz
Probability
0 0 0 0 0 1 2 1 1 5 15 27 35 42 48 52 54 55 57 60 63 69 70 69 68 68 67 65 64 62 60 59 57 53 49 46 44 44 45 42 38 36 31 26
0 0 0 0 0 1 2 2 4 9 20 32 40 46 49 51 53 56 57 59 61 63 63 63 64 64 64 64 65 64 63 61 59 56 52 47 43 41 41 41 39 36 32 30
0 0 0 0 1 1 1 3 9 16 26 34 42 47 48 48 50 55 58 57 57 56 55 55 57 58 57 59 61 62 61 60 58 55 52 49 45 40 37 39 40 38 35 34
0 0 0 0 1 2 2 5 13 21 26 31 37 42 45 46 47 50 54 55 52 49 48 49 50 51 52 53 55 56 56 57 56 54 52 50 47 43 39 39 42 42 39 36
0 0 0 0 1 3 5 10 16 22 25 28 33 39 44 46 45 46 49 50 47 44 43 44 44 46 49 51 52 52 52 54 55 54 53 50 49 47 44 41 41 41 38 37
1 0 1 2 2 2 7 15 22 28 32 35 39 43 45 44 42 43 46 46 43 41 41 41 40 44 47 49 48 48 47 48 51 52 51 49 48 47 45 41 39 36 34 33
1 2 5 8 7 9 16 25 31 37 42 44 46 47 46 42 40 41 42 41 41 42 42 40 39 41 44 43 42 41 41 40 41 42 42 43 44 42 40 38 36 33 33 33
5 7 12 16 17 23 33 38 39 41 42 42 44 44 42 41 40 40 39 38 40 43 43 39 36 35 37 37 37 37 37 35 32 32 34 37 39 37 36 34 32 31 31 33
12 13 18 22 26 32 39 43 42 38 36 35 37 37 37 39 39 38 38 37 38 39 39 35 31 30 31 32 33 34 33 31 29 28 30 32 34 34 33 31 28 27 28 28
19 19 21 25 28 28 32 37 36 32 30 30 31 33 35 36 35 34 35 35 32 30 30 29 28 28 29 30 31 30 29 27 27 26 26 27 29 29 29 28 25 23 23 23
23 23 24 26 26 24 25 29 29 27 26 25 27 29 31 32 31 29 28 27 23 21 22 25 27 29 29 29 28 27 26 23 23 22 20 21 23 23 21 20 18 17 17 19
22 22 23 23 21 20 23 25 25 25 24 23 24 24 24 25 24 22 21 21 18 16 18 21 25 27 26 26 25 25 24 22 19 18 17 17 18 16 13 10 9 9 10 12
17 17 17 17 17 17 21 23 22 21 21 20 19 19 18 17 16 15 16 16 16 16 16 19 22 23 22 21 22 23 22 20 17 16 16 16 15 13 10 8 7 7 6 5
15 14 14 15 15 15 18 19 18 17 15 15 16 16 15 14 12 12 13 12 13 14 16 16 17 19 20 19 18 19 18 17 15 15 16 15 14 13 12 11 11 11 9 6
14 14 14 14 14 14 13 14 14 13 12 12 13 14 14 14 13 12 12 12 12 14 15 15 15 17 18 16 14 13 13 13 13 14 15 16 15 13 12 12 12 14 14 12
12 12 12 12 12 11 11 10 11 10 10 11 11 11 11 11 11 11 12 13 14 15 16 15 14 14 15 14 12 10 9 9 10 11 13 14 14 12 10 8 9 12 14 14
9 10 10 10 10 10 9 10 11 10 10 9 8 7 6 6 7 9 11 12 13 13 13 12 11 11 11 11 10 8 7 6 6 8 10 12 12 11 8 6 7 9 10 11
9 9 10 10 9 9 9 11 12 10 8 7 6 4 3 4 6 8 8 8 8 8 8 6 6 7 8 9 8 7 6 4 4 6 7 9 10 9 7 5 5 6 8 8
9 8 8 8 8 7 9 11 10 8 6 5 4 4 4 5 6 6 5 4 4 3 3 3 3 4 6 7 7 6 6 5 4 5 6 6 6 6 5 4 4 5 6 6
7 6 5 5 5 6 7 8 7 5 5 4 5 5 5 4 4 4 4 3 2 1 1 1 2 3 4 6 6 6 6 6 4 4 4 4 4 4 4 3 3 3 4 5
4 4 3 4 5 7 7 5 5 5 5 6 6 6 4 3 4 4 3 1 1 1 0 1 2 3 4 5 6 6 6 6 5 3 2 3 4 4 3 3 3 2 2 3
3 3 3 4 6 7 5 4 3 5 6 6 5 5 4 3 3 3 1 0 1 1 0 0 1 2 3 4 5 5 5 5 5 3 2 3 5 5 4 3 3 1 1 2
3 3 3 3 4 3 2 1 2 4 6 6 4 4 3 3 2 1 0 0 0 0 0 0 0 1 1 1 2 3 3 3 3 3 2 3 4 4 3 3 2 2 2 3
2 2 1 1 1 1 0 0 1 3 5 4 3 2 2 1 1 0 0 0 0 0 0 0 0 0 0 0 1 1 1 1 1 1 1 2 3 3 3 2 3 3 4 4
1 1 0 0 0 0 0 0 0 1 1 1 1 1 1 0 0 0 0 0 0 0 0 0 0 0 0 0 0 0 0 0 0 0 0 1 2 3 3 3 3 3 4 4
0 0 0 1 0 0 0 0 0 0 0 0 0 0 0 0 0 0 0 0 0 0 0 0 0 0 0 0 0 0 0 0 0 0 0 0 2 3 3 3 3 3 3 3
0 0 0 1 0 0 0 0 0 0 0 0 0 0 0 0 0 0 0 0 0 0 0 0 0 0 0 0 0 0 0 0 0 0 0 1 2 3 3 3 3 3 3 3

GEFSNGP_con_probscp_234.txt.gz
Probability
0 0 0 0 0 0 0 2 5 10 14 17 20 21 20 23 30 36 37 34 32 30 29 30 30 29 30 33 36 35 35 37 39 37 36 33 26 22 20 18 17 14 11 9
0 0 0 0 0 1 2 4 8 12 16 20 24 23 20 21 28 34 36 33 32 32 31 30 29 29 30 32 34 35 35 35 34 34 35 33 30 27 24 21 18 17 15 13
0 0 0 0 1 2 4 7 9 13 20 25 27 25 21 20 25 30 33 32 32 32 30 27 27 28 30 30 31 33 34 32 30 32 34 33 32 31 28 24 20 19 18 17
0 0 0 1 3 4 6 9 11 15 22 27 28 27 23 21 23 27 30 31 30 30 28 25 25 27 29 28 29 32 32 30 31 33 33 32 32 32 30 27 24 23 21 20
0 0 1 3 5 7 9 14 19 22 25 29 31 30 26 22 24 28 29 29 27 26 26 25 24 26 27 28 29 31 31 31 32 34 34 33 32 31 31 30 28 27 25 22
0 0 1 5 8 9 12 18 24 27 30 33 34 31 25 23 25 26 25 24 23 22 22 22 21 23 25 26 26 27 29 31 31 31 32 31 30 29 30 29 28 27 25 22
0 1 3 7 10 11 12 16 21 27 31 32 32 28 25 25 26 23 20 19 18 17 17 17 17 19 22 24 23 23 25 27 25 24 25 25 24 24 25 25 23 23 22 19
1 2 4 8 11 11 11 13 17 23 27 29 30 28 28 27 25 21 17 16 14 13 13 13 13 15 19 20 20 20 21 20 19 17 16 16 16 18 20 20 19 19 18 18
4 5 6 8 8 8 10 13 16 20 24 28 29 28 27 25 21 18 16 14 12 11 11 12 12 14 16 17 17 17 16 15 14 13 11 11 12 13 14 15 14 14 14 14
7 9 10 9 9 9 11 15 18 20 24 26 26 24 22 18 14 13 14 12 10 10 10 10 11 12 13 13 14 14 13 13 12 11 10 9 9 10 11 11 10 9 10 10
9 9 10 11 11 12 14 17 18 19 20 21 20 18 15 11 8 8 9 9 9 9 8 7 7 9 10 10 11 12 12 12 12 10 9 8 8 8 9 9 8 7 7 7
7 8 9 9 10 11 13 14 14 14 14 15 15 13 10 8 6 6 6 6 6 7 6 4 4 6 7 8 10 11 12 13 12 9 8 8 8 7 7 8 7 6 5 5
7 7 7 8 9 9 10 10 11 11 11 11 11 11 9 7 6 5 4 4 4 4 4 3 3 5 6 7 9 10 11 12 11 9 7 7 7 7 7 6 5 3 2 2
6 5 6 7 8 9 9 9 9 10 10 10 10 11 9 6 4 3 3 2 2 2 2 3 3 5 6 7 8 9 10 11 10 9 8 7 6 6 6 6 5 3 1 0
5 5 6 7 8 10 11 10 10 10 9 9 9 9 6 3 1 1 1 1 1 0 1 1 2 3 5 7 8 8 9 9 9 9 8 7 6 6 6 6 6 4 2 0
5 6 6 6 8 10 11 10 9 8 7 6 6 5 3 1 0 0 0 0 0 0 0 0 1 1 2 5 7 7 7 8 8 8 7 7 6 6 6 7 7 6 4 1
7 7 7 7 9 10 10 9 8 5 4 2 2 2 2 1 0 0 0 0 0 0 0 0 0 0 0 2 5 6 6 7 7 6 6 6 6 6 5 5 7 7 4 3
7 7 7 8 9 9 9 7 5 2 1 0 1 2 2 2 1 0 0 0 0 0 0 0 0 0 0 1 3 4 5 5 6 5 5 5 4 4 3 2 3 4 3 3
7 6 6 7 7 6 5 4 2 1 0 1 1 2 3 2 1 1 1 1 0 0 0 0 0 0 0 0 1 2 3 4 5 4 4 4 4 3 1 0 0 1 2 1
5 5 4 5 5 3 2 1 0 0 1 2 3 3 2 2 2 1 1 0 0 0 0 0 0 0 0 0 0 2 3 3 3 3 3 3 3 2 1 0 0 0 1 1
5 4 3 3 2 1 0 0 0 1 2 2 3 3 2 2 1 1 0 0 0 0 0 0 0 0 0 0 0 1 2 2 2 2 1 1 1 1 0 0 0 0 0 1
5 4 3 1 0 0 0 0 1 2 2 1 2 2 1 1 0 0 0 0 0 0 0 0 0 0 0 0 0 0 1 1 1 1 0 0 0 0 0 0 0 0 0 1
3 3 2 1 0 0 0 0 1 2 1 1 1 1 0 0 0 0 0 0 0 0 0 0 0 0 0 0 0 0 0 0 1 0 0 0 0 0 0 0 0 0 0 0
2 1 1 0 0 0 0 0 0 1 1 0 0 0 0 0 0 0 0 0 0 0 0 0 0 0 0 0 0 0 0 0 0 0 0 0 0 0 0 0 0 0 0 0
1 0 0 0 0 0 0 0 0 0 0 0 0 0 0 0 0 0 0 0 0 0 0 0 0 0 0 0 0 0 0 0 0 0 0 0 0 0 0 0 0 0 0 0
0 0 0 0 0 0 0 0 0 0 0 0 0 0 0 0 0 0 0 0 0 0 0 0 0 0 0 0 0 0 0 0 0 0 0 0 0 0 0 0 0 0 0 0
0 0 0 0 0 0 0 0 0 0 0 0 0 0 0 0 0 0 0 0 0 0 0 0 0 0 0 0 0 0 0 0 0 0 0 0 0 0 0 0 0 0 0 0

GEFSNGP_con_probscp_240.txt.gz
Probability
0 0 0 0 0 0 0 0 0 0 1 3 6 9 11 11 9 9 9 10 11 13 16 18 18 19 22 24 23 21 19 19 19 20 21 22 22 19 16 15 13 12 12 12
0 0 0 0 0 0 0 0 1 1 3 5 7 10 11 10 10 10 10 10 11 12 14 16 17 20 25 27 25 24 24 24 23 23 23 22 21 18 15 13 12 12 12 11
0 0 0 0 0 0 1 1 2 3 4 6 8 9 10 10 10 11 11 11 12 11 11 12 15 19 24 26 26 25 26 27 27 26 25 23 20 17 15 13 12 12 11 10
0 0 0 0 1 1 1 2 3 5 6 8 10 10 9 9 9 9 9 11 12 12 13 14 15 18 21 22 23 23 23 24 26 26 24 23 21 19 17 16 15 14 12 12
0 0 0 0 1 1 1 3 5 7 9 12 14 13 10 9 8 7 8 9 11 14 17 17 17 19 20 21 20 19 19 21 22 22 20 20 21 20 20 18 18 17 16 16
1 1 1 0 1 1 1 2 4 7 10 14 16 14 10 10 11 10 9 8 10 13 16 17 18 19 19 19 16 14 14 17 18 18 17 17 17 17 17 17 16 16 16 16
2 2 1 0 0 0 0 1 3 5 8 13 15 13 11 12 15 14 11 10 12 13 13 15 17 18 17 14 11 9 10 13 15 16 15 15 14 13 14 14 13 13 13 12
1 2 1 0 0 0 0 1 2 3 6 11 14 13 12 14 17 16 14 12 12 12 11 11 12 15 14 10 7 7 9 10 12 14 14 14 14 12 13 14 14 13 11 9
0 0 0 0 0 0 0 2 3 4 6 10 13 14 14 15 16 15 13 12 11 10 9 8 8 9 9 7 6 7 8 9 10 11 12 12 12 11 12 14 16 15 13 11
0 1 1 1 1 0 1 3 5 6 8 10 13 14 15 15 15 14 12 11 10 9 8 6 5 4 5 5 6 6 6 7 8 10 12 12 11 10 11 12 13 14 14 14
1 1 2 3 2 1 1 4 6 8 9 10 12 13 14 13 13 12 10 9 9 9 7 4 3 3 3 4 5 5 5 5 7 10 11 11 10 9 8 8 9 11 12 12
1 1 3 4 3 2 2 5 6 8 9 10 10 11 10 10 9 9 8 8 7 7 6 3 3 3 3 3 4 4 4 5 8 9 10 10 9 8 7 6 5 6 6 6
1 2 4 5 5 4 4 5 6 8 9 9 9 7 6 5 6 6 6 6 5 5 3 3 2 2 3 3 3 4 4 4 7 9 10 10 9 7 6 6 4 3 3 2
3 4 5 6 6 6 6 6 6 6 6 6 6 5 4 4 4 4 4 4 3 2 1 1 1 1 1 2 3 3 3 3 5 9 11 10 9 7 6 6 5 4 3 1
4 4 6 6 6 6 6 6 6 5 5 5 5 4 4 3 2 2 2 2 1 0 0 0 0 0 0 1 2 2 2 2 3 7 9 10 9 7 6 6 6 5 4 3
4 5 5 5 5 5 5 6 6 6 6 5 5 5 4 2 1 1 1 1 0 0 0 0 0 0 0 0 1 1 1 0 1 3 5 7 7 5 4 4 4 4 3 3
4 4 3 3 3 3 4 6 6 5 5 4 4 3 2 1 0 0 0 0 0 0 0 0 0 0 0 0 0 0 0 0 0 0 2 3 3 3 3 3 3 3 4 4
5 5 5 4 4 5 5 6 5 4 3 3 2 1 1 0 0 0 0 0 0 0 0 0 0 0 0 0 0 0 0 0 0 0 0 0 0 1 2 3 3 4 4 4
6 7 8 8 8 8 6 5 4 3 2 1 1 0 0 0 0 0 0 0 0 0 0 0 0 0 0 0 0 0 0 0 0 0 0 0 0 1 1 2 3 3 3 3
6 7 8 8 8 6 4 3 1 1 1 0 0 0 0 0 0 0 0 0 0 0 0 0 0 0 0 0 0 0 0 0 0 0 1 1 1 2 1 1 1 1 1 2
4 5 5 5 4 2 1 1 0 0 0 0 0 0 0 0 0 0 0 0 0 0 0 0 0 0 0 0 0 0 0 0 0 0 1 2 3 3 2 0 0 0 0 1
3 3 3 2 1 0 0 0 0 0 0 0 0 0 0 0 0 0 0 0 0 0 0 0 0 0 0 0 0 0 0 0 0 0 1 2 2 2 1 0 0 0 0 0
3 3 2 1 0 0 0 0 0 0 0 0 0 0 0 0 0 0 0 0 0 0 0 0 0 0 0 0 0 0 0 0 0 0 0 1 1 1 0 0 0 0 0 0
3 3 1 0 0 0 0 0 0 0 0 0 0 0 0 0 0 0 0 0 0 0 0 0 0 0 0 0 0 0 0 0 0 0 0 0 0 0 0 0 0 0 0 0
3 2 1 0 0 0 0 0 0 0 0 0 0 0 0 0 0 0 0 0 0 0 0 0 0 0 0 0 0 0 0 0 0 0 0 0 0 0 0 0 0 0 0 0
2 1 0 0 0 0 0 0 0 0 0 0 0 0 0 0 0 0 0 0 0 0 0 0 0 0 0 0 0 0 0 0 0 0 0 0 0 0 0 0 0 0 0 0
1 0 0 0 0 0 0 0 0 0 0 0 0 0 0 0 0 0 0 0 0 0 0 0 0 0 0 0 0 0 0 0 0 0 0 0 0 0 0 0 0 0 0 0

GEFSNGP_con_probscp_246.txt.gz
Probability
0 0 0 0 0 0 0 0 0 0 1 3 6 9 13 16 18 20 21 19 21 28 32 33 36 38 39 40 41 39 38 35 31 28 26 24 23 23 25 27 28 30 31 31
0 0 0 0 0 0 0 0 0 0 2 4 7 9 12 14 17 20 21 21 22 28 32 34 36 38 38 39 41 42 44 41 35 31 27 25 25 24 26 29 31 33 33 31
0 0 0 0 0 0 0 0 0 1 2 5 7 10 12 14 18 21 23 23 25 28 32 35 37 38 38 39 41 44 47 45 39 35 31 29 27 26 27 31 34 34 32 30
0 0 0 0 0 0 1 1 1 2 3 5 8 12 14 15 18 21 23 25 26 28 32 36 37 37 37 37 38 41 44 43 40 37 34 31 30 29 31 32 34 34 31 28
0 0 0 0 0 0 1 2 2 2 3 5 9 12 14 17 19 21 23 25 27 28 33 38 38 37 34 32 33 36 39 40 38 37 36 35 35 34 34 33 33 33 32 30
0 0 0 0 0 0 2 3 2 3 4 7 9 13 18 21 22 22 24 26 28 29 33 38 38 36 32 30 31 34 36 36 36 36 37 36 36 36 33 31 31 32 33 33
0 0 0 1 1 2 4 6 5 5 7 10 14 20 26 28 26 25 24 25 26 28 31 33 35 35 33 32 33 35 35 34 33 33 34 33 33 32 30 28 28 29 30 30
0 0 0 2 4 5 7 9 9 10 11 16 23 27 29 31 31 28 25 24 24 27 28 29 30 32 32 31 31 32 30 29 27 27 28 28 28 28 27 26 25 24 22 21
1 1 1 2 5 6 7 9 11 13 16 22 26 26 26 29 31 28 25 24 25 27 28 28 28 29 27 25 25 24 22 20 19 19 20 22 23 23 23 22 20 17 14 12
5 4 3 3 3 4 5 8 10 12 16 21 22 21 23 26 27 26 25 25 27 27 27 27 26 26 23 19 18 16 13 11 10 11 14 15 17 18 18 17 15 12 11 10
7 8 7 4 3 3 4 6 8 9 13 15 16 17 20 24 24 24 23 24 25 24 23 23 22 22 19 15 13 11 8 6 7 9 11 11 13 14 15 13 11 10 10 10
8 9 9 7 5 5 5 6 6 7 10 11 13 16 19 22 21 20 20 22 22 21 19 18 17 16 15 13 11 9 6 5 7 9 10 10 10 12 12 10 7 7 7 7
10 10 11 10 9 7 6 6 5 7 9 11 13 16 18 19 18 16 17 19 20 18 17 15 14 13 12 11 10 8 6 5 6 7 8 8 9 9 9 8 7 5 4 3
9 10 11 10 9 8 7 6 5 6 9 12 14 16 16 16 15 14 15 16 17 15 14 13 12 12 11 10 8 7 6 5 5 5 5 6 6 6 7 8 8 7 3 1
6 8 9 8 8 7 6 6 6 7 9 11 14 16 15 13 12 13 13 14 14 12 11 11 11 10 9 8 7 6 6 4 4 5 3 3 3 4 5 7 8 7 5 3
6 7 7 7 7 7 6 6 6 6 7 9 13 15 15 12 10 10 12 12 11 10 10 10 9 9 8 8 7 6 5 4 3 3 3 1 2 2 3 5 6 5 4 4
7 7 8 8 8 7 7 6 6 6 6 8 11 14 13 10 8 9 11 11 10 9 9 9 8 8 8 9 8 6 4 2 2 2 2 1 1 1 2 3 5 5 4 4
6 7 8 9 9 8 8 8 8 8 9 10 11 11 10 8 8 9 10 10 8 6 6 6 6 6 7 8 7 4 2 1 0 1 1 0 0 0 1 3 5 5 5 4
6 8 9 10 10 10 10 10 10 11 12 12 11 9 7 7 8 8 8 7 5 3 2 3 4 4 5 5 4 3 1 0 0 0 0 0 0 0 1 3 5 6 5 4
6 8 10 10 10 11 11 10 11 12 12 11 9 7 6 6 6 6 5 5 3 1 1 2 3 3 3 3 3 2 1 0 0 0 0 0 0 0 1 3 5 6 5 4
5 6 8 9 9 9 9 8 8 9 10 8 5 4 4 4 4 4 3 3 3 2 2 3 3 3 3 2 1 1 0 0 0 0 0 0 0 0 2 4 6 6 5 4
2 3 5 7 7 7 7 6 6 6 6 5 2 1 2 2 2 2 2 2 2 2 2 3 3 2 2 1 0 0 0 0 0 0 0 0 0 0 2 5 6 5 4 3
1 2 4 4 5 5 5 4 4 4 4 3 2 0 0 1 1 1 1 0 0 1 2 2 1 1 1 1 0 0 0 0 0 0 0 0 0 0 2 5 6 4 3 2
3 3 3 3 3 4 4 3 2 3 3 3 1 0 0 0 0 0 0 0 0 1 1 1 0 0 0 1 1 0 0 0 0 0 0 0 0 0 1 4 4 4 3 2
3 3 3 3 3 4 4 3 1 1 2 1 0 0 0 0 1 1 1 1 0 0 0 0 0 0 0 1 1 0 0 0 0 0 0 0 0 0 0 1 2 3 3 3
3 3 3 3 4 5 5 3 1 2 1 1 1 0 0 1 2 2 2 1 0 0 0 0 0 0 0 0 0 0 0 0 0 0 0 0 0 0 1 1 1 3 3 3
3 3 3 3 4 5 5 3 2 3 2 2 2 1 1 2 3 3 1 0 0 0 0 0 0 0 0 0 0 0 0 0 0 0 0 0 0 1 2 2 2 3 3 3